Weather History for Palmdale, CA

Change the Weather History Date:

Monday, May 20, 2013

  Actual Average Record
Temperature  
Mean Temperature 71 °F 69 °F  
Max Temperature 87 °F 84 °F 98 °F (2001)
Min Temperature 54 °F 53 °F 39 °F (1948)
Degree Days  
Heating Degree Days 0 2  
Month to date heating degree days 26 54  
Since 1 July heating degree days 2541 2904  
Cooling Degree Days 6 6  
Month to date cooling degree days 108 73  
Year to date cooling degree days 181 96  
Growing Degree Days 20 (Base 50)    
Moisture  
Dew Point 28 °F    
Average Humidity 27    
Maximum Humidity 46    
Minimum Humidity 8    
Precipitation  
Precipitation 0.00 in 0.01 in 0.02 in (2002)
Month to date precipitation T 0.21  
Year to date precipitation 0.71 5.19  
Since 1 July precipitation 1.00 8.17  
Snow  
Snow 0.00 in - 0.00 in (1973)
Month to date snowfall 0.0  
Since 1 July snowfall 0.0  
Snow Depth 0.00 in    
Sea Level Pressure  
Sea Level Pressure 29.96 in    
Wind  
Wind Speed 7 mph (North)    
Max Wind Speed 23 mph    
Max Gust Speed 29 mph    
Visibility 10 miles    
Events      
T = Trace of Precipitation, MM = Missing Value Source: NWS Daily Summary

Daily Weather History Graph

Daily Weather History Graph

Search for Another Location

Airport:

Trip Planner

Search our weather history database for the weather conditions in past years. The results will help you decide how hot, cold, wet, or windy it might be!

Date:

Astronomy

May. 20, 2013 Rise Set
Actual Time 5:45 AM PDT 7:52 PM PDT
Civil Twilight 5:17 AM PDT 8:20 PM PDT
Nautical Twilight 4:43 AM PDT 8:55 PM PDT
Astronomical Twilight 4:06 AM PDT 9:32 PM PDT
Moon 3:15 PM PDT (5/20) 2:31 AM PDT (5/20)
Length of Visible Light 15h 02m
Length of Day
14h 06m
Waxing Gibbous, 76% of the Moon is Illuminated
May 20
Waxing Gibbous
May 24
Full
May 31
Last Quarter
Jun 8
New
Jun 16
First Quarter

Hourly Weather History & Observations

Time (PDT) Temp. Dew Point Humidity Pressure Visibility Wind Dir Wind Speed Gust Speed Precip Events Conditions
12:53 AM 66.2 °F 33.8 °F 30% 30.00 in 10.0 mi WNW 15.0 mph - N/A   Clear
1:53 AM 64.9 °F 36.0 °F 34% 29.92 in 10.0 mi WNW 9.2 mph - N/A   Clear
2:53 AM 61.0 °F 32.0 °F 34% 29.94 in 10.0 mi WSW 3.5 mph - N/A   Clear
3:53 AM 57.0 °F 30.0 °F 36% 29.94 in 10.0 mi SSW 6.9 mph - N/A   Clear
4:53 AM 55.0 °F 30.9 °F 40% 29.96 in 10.0 mi South 5.8 mph - N/A   Clear
5:53 AM 54.0 °F 33.1 °F 45% 29.98 in 10.0 mi SSW 6.9 mph - N/A   Clear
6:53 AM 59.0 °F 34.0 °F 39% 30.01 in 10.0 mi Calm Calm - N/A   Clear
7:53 AM 64.9 °F 34.0 °F 32% 30.02 in 10.0 mi NNE 3.5 mph - N/A   Clear
8:53 AM 69.1 °F 36.0 °F 30% 30.03 in 10.0 mi NNE 5.8 mph - N/A   Clear
9:53 AM 75.9 °F 30.0 °F 19% 30.01 in 10.0 mi NE 12.7 mph 20.7 mph N/A   Clear
10:53 AM 80.1 °F 21.0 °F 11% 30.00 in 10.0 mi NE 24.2 mph 27.6 mph N/A   Clear
11:53 AM 81.0 °F 21.0 °F 11% 29.99 in 10.0 mi East 15.0 mph 21.9 mph N/A   Clear
12:53 PM 82.0 °F 19.9 °F 10% 29.98 in 10.0 mi ENE 11.5 mph 21.9 mph N/A   Clear
1:53 PM 84.0 °F 19.9 °F 9% 29.97 in 10.0 mi ENE 10.4 mph 18.4 mph N/A   Clear
2:53 PM 84.9 °F 18.0 °F 8% 29.96 in 10.0 mi North 4.6 mph - N/A   Clear
3:53 PM 84.9 °F 18.0 °F 8% 29.93 in 10.0 mi Calm Calm - N/A   Clear
4:53 PM 86.0 °F 18.0 °F 8% 29.91 in 10.0 mi Variable 4.6 mph - N/A   Clear
5:53 PM 86.0 °F 18.0 °F 8% 29.90 in 10.0 mi East 6.9 mph - N/A   Clear
6:53 PM 84.2 °F 17.6 °F 8% 29.96 in 10.0 mi North 5.8 mph - N/A   Clear
7:53 PM 81.0 °F 17.1 °F 9% 29.89 in 10.0 mi NNE 3.5 mph - N/A   Clear
8:53 PM 73.9 °F 37.0 °F 26% 29.91 in 10.0 mi West 9.2 mph - N/A   Clear
9:53 PM 73.0 °F 39.0 °F 29% 29.92 in 10.0 mi SW 9.2 mph - N/A   Clear
10:53 PM 71.1 °F 37.9 °F 30% 29.93 in 10.0 mi SSW 5.8 mph - N/A   Clear
11:53 PM 70.0 °F 41.0 °F 35% 29.92 in 10.0 mi SW 3.5 mph - N/A   Clear